TimeEST,TemperatureF,Dew PointF,Humidity,Sea Level PressureIn,VisibilityMPH,Wind Direction,Wind SpeedMPH,Gust SpeedMPH,PrecipitationIn,Events,Conditions,WindDirDegrees,DateUTC
12:54 AM,24.1,15.1,69,29.74,10.0,Variable,4.6,-,N/A,,Overcast,0,2013-03-04 05:54:00
1:54 AM,24.1,15.1,69,29.73,10.0,Variable,6.9,-,N/A,,Overcast,0,2013-03-04 06:54:00
2:54 AM,24.1,15.1,69,29.73,10.0,Variable,6.9,-,N/A,,Overcast,0,2013-03-04 07:54:00
3:54 AM,24.1,16.0,71,29.74,10.0,West,4.6,-,N/A,,Overcast,260,2013-03-04 08:54:00
4:54 AM,24.1,16.0,71,29.74,10.0,WSW,3.5,-,N/A,,Overcast,240,2013-03-04 09:54:00
5:54 AM,24.1,16.0,71,29.75,10.0,West,9.2,-,N/A,,Overcast,280,2013-03-04 10:54:00
7:54 AM,25.0,18.0,75,29.75,10.0,West,11.5,-,N/A,,Overcast,270,2013-03-04 12:54:00
8:54 AM,26.1,18.0,71,29.75,10.0,WNW,6.9,18.4,N/A,,Overcast,290,2013-03-04 13:54:00
9:54 AM,27.0,18.0,69,29.75,10.0,WNW,6.9,-,N/A,,Overcast,300,2013-03-04 14:54:00
10:54 AM,28.0,18.0,66,29.74,10.0,WNW,10.4,20.7,N/A,,Overcast,290,2013-03-04 15:54:00
11:54 AM,30.0,18.0,61,29.74,10.0,West,12.7,17.3,N/A,,Overcast,280,2013-03-04 16:54:00
12:51 PM,30.2,17.6,60,29.70,10.0,West,12.7,19.6,N/A,,Overcast,280,2013-03-04 17:51:00
12:54 PM,30.9,18.0,59,29.73,10.0,West,15.0,19.6,N/A,,Overcast,280,2013-03-04 17:54:00
1:54 PM,32.0,18.0,56,29.73,10.0,West,10.4,21.9,N/A,,Overcast,280,2013-03-04 18:54:00
2:54 PM,30.9,18.0,59,29.73,10.0,WSW,9.2,17.3,N/A,,Overcast,250,2013-03-04 19:54:00
3:54 PM,30.0,18.0,61,29.75,10.0,WSW,9.2,16.1,N/A,,Overcast,250,2013-03-04 20:54:00
4:54 PM,28.9,18.0,64,29.76,10.0,WSW,10.4,19.6,N/A,,Overcast,240,2013-03-04 21:54:00
5:54 PM,28.0,18.0,66,29.79,10.0,West,10.4,21.9,N/A,,Overcast,270,2013-03-04 22:54:00
6:33 PM,28.4,19.4,69,29.78,7.0,West,10.4,18.4,0.00,Snow,Light Snow,280,2013-03-04 23:33:00
6:54 PM,28.0,19.0,69,29.83,6.0,West,10.4,18.4,0.00,Snow,Light Snow,280,2013-03-04 23:54:00
7:54 PM,28.0,19.0,69,29.85,6.0,NNW,9.2,18.4,0.00,Snow,Light Snow,330,2013-03-05 00:54:00
8:54 PM,27.0,17.1,66,29.87,10.0,NNW,4.6,-,0.00,,Overcast,330,2013-03-05 01:54:00
9:25 PM,26.6,17.6,69,29.85,10.0,NW,5.8,-,N/A,,Overcast,320,2013-03-05 02:25:00
9:54 PM,27.0,17.1,66,29.88,10.0,NNW,5.8,-,N/A,,Overcast,330,2013-03-05 02:54:00
10:30 PM,26.6,17.6,69,29.85,10.0,WNW,5.8,-,N/A,,Overcast,290,2013-03-05 03:30:00
10:54 PM,26.1,18.0,71,29.89,10.0,WNW,3.5,-,N/A,,Overcast,290,2013-03-05 03:54:00
11:22 PM,26.6,17.6,69,29.86,10.0,West,4.6,-,N/A,,Overcast,280,2013-03-05 04:22:00
11:54 PM,26.1,18.0,71,29.90,10.0,Variable,3.5,-,N/A,,Overcast,0,2013-03-05 04:54:00